Regional Weather Roundup
Issued by NWS Grand Forks, ND

Home | Current Version | Previous Version | Text Only | Print | Product List | Glossary On
Versions: 1 2 3 4 5 6 7 8 9 10 11 12 13 14 15 16 17 18 19 20 21 22 23 24 25 26 27 28 29 30 31 32 33 34 35 36 37 38 39 40 41 42 43 44 45 46 47 48 49 50
000
ASUS43 KFGF 241031
RWRFGF
PRAIRIE TO PINES  WEATHER ROUNDUP
NATIONAL WEATHER SERVICE EASTERN NORTH DAKOTA/GRAND FORKS ND
500 AM CDT MON JUL 24 2017

 **SATELLITE DATA USED TO AUGMENT SKY COVER AT AUTOMATED STATIONS**
 *****  WEATHER ACROSS EASTERN NORTH DAKOTA  *****

CITY           SKY/WX    TMP DP  RH WIND       PRES   REMARKS
GRAND FORKS    FAIR      62  61  96 S10       29.93F
GRAND FRKS AFB FAIR      60  59  99 S9        29.93F
DEVILS LAKE    FAIR      65  60  84 S21G26    29.93S
WAHPETON ARPT  FAIR      59  55  88 SE8       30.02R
$$

 ***** WEATHER ACROSS CENTRAL AND WESTERN NORTH DAKOTA  *****

CITY           SKY/WX    TMP DP  RH WIND       PRES   REMARKS
BISMARCK       FAIR      66  61  84 S10       29.95R
MINOT          FAIR      72  56  57 S16G25    29.84F
JAMESTOWN      FAIR      60  58  92 S12       29.98R
MINOT AFB      FAIR      68  56  65 S9        29.84S
GARRISON         N/A     65  58  78 S10G20    29.90R
WILLISTON      FAIR      75  54  47 S10G20    29.79F
DICKINSON      FAIR      67  55  65 SE15      29.87F
HETTINGER      FAIR      69  53  56 SE13      29.92F
$$

 *****  OTHER AIRPORT OBSERVATIONS IN OUR AREA  *****

CITY           SKY/WX    TMP DP  RH WIND       PRES   REMARKS
WALHALLA       NOT AVBL
GRAFTON AIRPOR FAIR      57  57 100 S7        29.96R
VALLEY CITY AR PTSUNNY   59  59 100 S8        30.01R
CANDO          NOT AVBL
CAVALIER APRT  FAIR      61  59  94 S7        29.92F
GWINNER        SUNNY     55  55 100 CALM      30.01R
SHEYENNE NWR     N/A     55  55 100 S5        29.95S
ROLLA            N/A     59  59 100 S10       29.92S
 ***** THE ABOVE OBSERVATIONS ARE NON NWS ARE NOT QUALITY
       CONTROLLED AND MAY MIS-REPORT RAIN FOR SNOW...
$$

  *****  WEATHER ACROSS NORTHERN MINNESOTA  *****

CITY           SKY/WX    TMP DP  RH WIND       PRES   REMARKS
FLAG ISLAND    FAIR      64  61  88 CALM      29.97R FOG
WARROAD        FAIR      59  55  88 CALM      29.98S
ROSEAU         FAIR      59  54  82 S6        29.97R
HALLOCK        FAIR      59  57  94 S5        29.94R
THF RVR FALLS  FAIR      59  56  89 S8        29.99S
BAUDETTE       FAIR      57  56  96 SE5       30.00S
WASKISH        FAIR      57  55  94 CALM        N/A
CROOKSTON      FAIR      61  59  94 S12       29.97S
STEPHEN NDAWN    N/A     63  59  88 S8          N/A
GREENBUSH NDAW   N/A     61  57  88 S5          N/A
$$
  *****  WEATHER ACROSS CENTRAL AND WEST MINNESOTA  *****

CITY           SKY/WX    TMP DP  RH WIND       PRES   REMARKS
FOSSTON        FAIR      57  55  94 SE7       30.01S
BEMIDJI        FAIR      56  56  97 S6        30.03S
PARK RAPIDS    FAIR      59  56  89 SE5       30.04S
ELBOW LAKE     FAIR      59  58  96 E6        30.04R
WADENA         FAIR      55  55 100 CALM      30.04S
DETROIT LAKES  FAIR      61  59  94 SE6       30.04R
MOORHEAD       FAIR      63  61  94 S9        30.01R
FERGUS FALLS   FAIR      63  61  94 S8        30.02R
MORRIS MN      MOCLDY    61  57  88 S3        30.03R
STAPLES        FAIR      54  52  94 CALM      30.04F
$$
  *****  WEATHER ELSEWHERE ACROSS MINNESOTA  *****

CITY           SKY/WX    TMP DP  RH WIND       PRES   REMARKS
DULUTH         FOG       50  50 100 SW5       30.08R VSB 1/4
INTRNTL FALLS  FAIR      55  53  93 CALM      30.03S
ELY            FAIR      48  46  93 CALM      30.07S
CLOQUET        FOG       55  54  94 CALM      30.08S VSB<1/4
WHEATON        FAIR      57  55  94 S7        30.04R
BRAINERD       FOG       51  51 100 CALM      30.05F VSB 3/4
HIBBING        FOG       43  43 100 CALM      30.07S VSB 1/4
ALEXANDRIA     FAIR      59  57  93 SE6       30.05S
SAINT CLOUD    FAIR      52  52 100 E3        30.05R
MINNEAPOLIS    FAIR      61  55  81 N3        30.05R
$$

  *****  WEATHER ACROSS SOUTH DAKOTA  *****

CITY           SKY/WX    TMP DP  RH WIND       PRES   REMARKS
SIOUX FALLS    FAIR      56  55  97 NE5       30.02F
BROOKINGS      FAIR      57  55  93 CALM      30.04R
WATERTOWN      FAIR      58  56  93 CALM      30.03R
HURON          FAIR      61  59  93 SE7       30.00F
SISSETON         N/A     56  54  93 SE5       30.01R
ABERDEEN       FAIR      59  58  96 S6        30.01R
MITCHELL       FAIR      61  59  93 SE7       30.02S
PIERRE         FAIR      66  58  75 SE10      29.94F
MOBRIDGE       FAIR      68  61  78 SE14      29.92F
RAPID CITY     FAIR      71  53  52 NW14      29.95F
$$

  *****  SOME WEATHER IN NEARBY STATES *****

CITY           SKY/WX    TMP DP  RH WIND       PRES   REMARKS
GLASGOW MT     FAIR      73  47  39 SE13      29.67F
GREAT FALLS MT FAIR      57  48  72 N21G32    29.94R
CHEYENNE WY    FAIR      63  52  67 SW8       30.12F
SCOTTSBLUFF NE FAIR      77  54  44 S12       29.97F
OMAHA NE       FAIR      65  60  84 NE3       30.02R
DES MOINES IA  FAIR      65  60  84 NE5       29.99R
DAVENPORT IA   MOCLDY    63  62  97 NE5       29.98R
CHICAGO IL     CLOUDY    67  60  78 N13       29.95R
EAU CLAIRE WI  FAIR      55  54  96 CALM      30.05R FOG
LA CROSSE WI   FAIR      63  57  81 N5        30.02R
$$

  *****  SOME NATIONAL WEATHER *****

CITY           SKY/WX    TMP DP  RH WIND       PRES   REMARKS
LA GUARDIA NY  LGT RAIN  69  68  96 NE12      29.76F FOG
RALEIGH NC     MOCLDY    72  70  93 SW9       29.87R
ATLANTA GA     MOCLDY    76  73  91 W6        29.95R
NEW ORLEANS LA MOCLDY    79  76  90 S8        29.97S
OKLAHOMA CITY  FAIR      71  69  93 CALM      29.94F
ALBUQUERQUE NM FAIR      71  58  63 CALM      30.19S
SALT LAKE CITY FAIR      75  46  35 S5        29.98S
LOS ANGELES CA MOCLDY    69  63  81 CALM      29.88F
BOISE ID       FAIR      74  41  30 SE3       29.88F
SEATTLE WA     FAIR      61  52  72 NE6       30.04S
$$

*** WEATHER ACROSS MANITOBA...SASKATCHEWAN AND ONTARIO ***
                ***ONTARIO***

CITY           SKY/WX    TMP DP  RH WIND       PRES   REMARKS
GERALDTON      FOG       46  46 100 E3        30.02S VSB 1/2
THUNDER BAY    PTCLDY    48  48 100 W3        30.04R
SIOUX LOOKOUT  PTCLDY    55  55 100 S3        29.99S
TORONTO        MOCLDY    68  57  68 NW8       29.73R
BIG TROUT LK   CLEAR     63  52  67 SW6       29.86F
PICKLE LAKE    NOT AVBL
DRYDEN         CLEAR     61  55  82 S6        30.00S
KENORA         PTCLDY    61  59  94 S6        29.98S
$$
                *** MANITOBA***

CITY           SKY/WX    TMP DP  RH WIND       PRES   REMARKS
BRANDON        PTCLDY    55  54  94 E7        29.86F
DAUPHIN        PTCLDY    61  57  88 VRB2      29.81S
ISLAND LAKE    NOT AVBL
PILOT MOUND      N/A     59  57  94 SE8         N/A
THE PAS        MOCLDY    63  61  94 SE5       29.73F
THOMPSON       FOG       46  46 100 CALM      29.78S VSB 1/8
WINNIPEG       PTCLDY    63  61  94 S9        29.91S
LYNN LAKE      FOG       54  54 100 NE2       29.76S VSB 1/4
CHURCHILL      MOCLDY    54  50  87 N15       29.81R
GILLAM         PTCLDY    57  55  94 CALM      29.77
$$
                ***SASKATCHEWAN***

CITY           SKY/WX    TMP DP  RH WIND       PRES   REMARKS
ESTEVAN        PTCLDY    70  57  64 SE14      29.77F
KINDERSLEY     CLOUDY    57  50  77 NW26G43   29.72R
LLOYDMINSTER   LGT RAIN  52  52 100 NW24G31   29.70F
PRINCE ALBERT  CLOUDY    64  63  94 E10G20    29.57F
REGINA         CLEAR     64  54  68 SE16      29.67F
YORKTON        CLOUDY    66  57  72 SE15      29.73F
N. BATTLEFORD  MOCLDY    63  61  94 N8        29.60F
LA RONGE       CLOUDY    64  61  88 NE7       29.66F
SASKATOON      PTCLDY    68  59  73 E9        29.54F
SWIFT CURRENT  CLEAR     68  54  60 W26G35    29.70R
$$
NOTE: THESE ARE AUTOMATED STATIONS WITH LIMITED QUALITY CONTROL
      "FAIR" INDICATES FEW OR NO CLOUDS BELOW 12,000 FEET WITH NO
      SIGNIFICANT WEATHER AND/OR OBSTRUCTIONS TO VISIBILITY.
      SKY/WX - SKY CONDITION AND SIGNIFICANT WEATHER.
      TMP - AIR TEMPERATURE.    DP   - DEWPOINT TEMPERATURE.
      RH  - RELATIVE HUMIDITY.  PRES - PRESSURE.
      HX  - HEAT INDEX.         WCI  - WIND CHILL INDEX.
$




USA.gov is the U.S. government's official web portal to all federal, state and local government web resources and services.